Regional Weather Roundup
Issued by NWS

Home | Current Version | Previous Version | Graphics & Text | Print | Product List | Glossary On
Versions: 1 2 3 4 5 6 7 8 9 10 11 12 13 14 15 16 17 18 19 20 21 22 23 24 25 26 27 28 29 30 31 32 33 34 35 36 37 38 39 40 41 42 43 44 45 46 47 48 49 50
000
ASUS43 KIND 210409
RWRIN

WEATHER ROUNDUP FOR INDIANA
NATIONAL WEATHER SERVICE INDIANAPOLIS IN
1100 PM EST MON NOV 20 2017

NOTE: "FAIR" INDICATES FEW OR NO CLOUDS BELOW 12,000 FEET WITH NO
SIGNIFICANT WEATHER AND/OR OBSTRUCTIONS TO VISIBILITY.

* - STATION DOES NOT REPORT WEATHER SUCH AS PRECIPITATION OR FOG.

+ - STATION NOT QUALITY CONTROLLED BY THE NATIONAL WEATHER SERVICE.
    USE DATA WITH CAUTION...ESPECIALLY DEWPOINT AND RELATIVE
    HUMIDITY OBSERVATIONS.

INZ001>003-010>013-019-020-210500-
NORTHWEST INDIANA

CITY           SKY/WX    TMP DP  RH WIND       PRES   REMARKS
GARY /AIRPORT/ PTCLDY    46  28  50 S15G30    29.78S
KNOX *+        CLOUDY    41  30  65 S21       29.82F
LA PORTE +     CLOUDY    39  29  67 S14G20    29.81F WCI  31
MICHIGAN CITY+ PTCLDY    41  30  65 S17G25    29.79F
MONTICELLO +   CLOUDY    40  26  56 S15       29.86F WCI  32
RENSSELAER +   PTCLDY    41  23  48 S17G24    29.84F
VALPARAISO     CLOUDY    43  30  60 SW20G26   29.81F

$$

LMZ046-743>745-210500-
SOUTHERN LAKE MICHIGAN

STATION/POSITION TIME  TEMP    WIND        PRES    WAVE
                       AIR SEA DIR/SP/G            HT
                 (UTC) (F)     (DEG/KT/KT) (MB)    (FT)
BURNS HARBOR     0340   45     200/ 25/ 31 1008.5F
MICHIGAN CITY    0340   44     180/ 23/ 29   N/A

$$

INZ004-005-014>016-021>024-210500-
NORTH CENTRAL INDIANA

CITY           SKY/WX    TMP DP  RH WIND       PRES   REMARKS
GOSHEN         CLEAR     41  23  48 SW16      29.83S
LOGANSPORT +   CLEAR     37  27  65 S14       29.88S WCI  29
PERU/GRISSOM   CLEAR     40  26  58 SW15      29.87R WCI  31
ROCHESTER +    CLEAR     43  27  52 S15G23    29.86S
SOUTH BEND     CLEAR     42  28  57 SW18G29   29.81F
WARSAW +       CLEAR     39  27  60 SW7       29.85S WCI  34

$$

INZ006>009-017-018-025>027-210500-
NORTHEAST INDIANA

CITY           SKY/WX    TMP DP  RH WIND       PRES   REMARKS
AUBURN +       CLEAR     39  25  56 SW7       29.87R WCI  34
FORT WAYNE     PTCLDY    40  27  59 SW15      29.87S WCI  32
HUNTINGTON +   CLEAR     40  24  52 SW13G20   29.88R WCI  33
KENDALLVILLE + CLEAR     39  26  58 SW16G25   29.85S WCI  31

$$

INZ028-029-035-036-043>045-051>053-210500-
WEST CENTRAL INDIANA

CITY           SKY/WX    TMP DP  RH WIND       PRES   REMARKS
CRAWFORDSVL +  CLEAR     38  26  61 S12         N/A  WCI  31
GREENCASTLE +  CLEAR     43  21  42 S7G16     29.92S
LAFAYETTE      CLEAR     41  26  55 S12G18    29.88S
TERRE HAUTE    CLEAR     42  24  49 S13G22    29.93R

$$

INZ030>032-037>040-046>048-054>057-064-065-210500-
CENTRAL INDIANA

CITY           SKY/WX    TMP DP  RH WIND       PRES   REMARKS
CP ATTERBURY + CLEAR     37  25  60 S8        29.96F WCI  31
FRANKFORT +    CLEAR     39  28  64 SW10      29.91R WCI  32
GREENWOOD *+   PTCLDY    39  28  62 S9        29.94F WCI  33
INDIANAPOLIS   CLEAR     40  24  53 S13       29.92F WCI  32
-EAGLE CREEK   CLEAR     41  23  48 S9        29.91F
KOKOMO +       CLEAR     40  26  57 S15       29.89R WCI  32
MARION +       CLEAR     39  27  61 S20G26    29.89S WCI  29
MT COMFORT *+  PTCLDY    37  28  70 S14       29.92S WCI  29
SHELBYVILLE    CLEAR     40  24  53 S15       29.94F WCI  32
ZIONSVILLE +   CLEAR     37  25  61 S12       29.90S WCI  30

$$

INZ033-034-041-042-049-050-058-059-210500-
EAST CENTRAL INDIANA

CITY           SKY/WX    TMP DP  RH WIND       PRES   REMARKS
MUNCIE         CLEAR     41  25  53 S18G26    29.89F
RICHMOND +     CLEAR     34  28  80 S14       29.96S WCI  24

$$

INZ060-061-067>069-081>083-085>088-210500-
SOUTHWEST INDIANA

CITY           SKY/WX    TMP DP  RH WIND       PRES   REMARKS
EVANSVILLE     CLEAR     43  25  49 S12       30.00F
HUNTINGBURG +  CLEAR     40  26  57 S9        30.00F WCI  34
WASHINGTON +   CLEAR     39  25  56 S13       29.96F WCI  31

$$

INZ062-063-066-070>080-084-089>092-210500-
SOUTH CENTRAL AND SOUTHEAST INDIANA

CITY           SKY/WX    TMP DP  RH WIND       PRES   REMARKS
BEDFORD +      CLEAR     39  23  52 S6        29.97F WCI  35
BLOOMINGTON    CLEAR     42  23  46 S13       29.94F
MADISON *+     CLEAR     37  23  56 S5        30.02F WCI  34
NORTH VERNON + CLEAR     37  23  56 S10       29.99F WCI  30
SEYMOUR +      CLEAR     39  25  56 S7        29.99F WCI  34

$$





USA.gov is the U.S. government's official web portal to all federal, state and local government web resources and services.